Theta_e
345 346 344 345 346 348 350 352 356 356 356 349 349 354 355 359 358 358 357 355 354 353 350 347 345 347 350 348 349 349 349 350 349 344 340 346 350 350 349 347 350 349 350 352 351 350 348 348 349 349 348 349 348 348 347 346 346 347 348 348 349 348 349 349 349 350 350 351 351 350 350 350 350 349 349 350 351 351 352 352 351 352 351 348 348 347 350 351 350 350 349 351 352 351 350 349 349
342 342 343 345 346 351 353 353 356 355 355 349 349 355 356 360 358 358 356 355 355 352 349 346 347 350 350 348 348 348 350 349 347 346 347 349 349 350 348 348 351 350 351 351 350 350 349 349 349 350 350 349 347 347 347 345 345 345 347 348 349 348 349 349 349 349 350 351 352 351 350 351 350 349 350 350 350 351 351 352 352 352 350 347 347 347 350 352 350 349 349 351 351 351 351 351 349
337 341 344 347 350 353 354 355 355 353 352 348 351 358 359 360 358 358 357 357 355 350 348 348 350 351 350 350 351 350 350 347 344 345 348 350 350 351 349 350 351 350 351 350 350 349 350 349 349 351 350 349 347 347 347 346 345 343 344 346 348 348 349 349 349 350 351 352 352 351 351 351 350 349 350 350 350 351 351 351 351 350 349 346 348 351 351 350 349 349 350 351 350 350 351 352 351
336 343 346 350 354 356 356 358 359 354 349 346 350 358 360 359 358 358 357 356 351 348 350 350 352 351 351 353 351 350 350 346 346 347 348 350 350 350 350 350 351 351 350 349 349 348 349 349 350 351 349 349 348 348 347 346 344 342 342 344 347 348 349 349 349 350 351 352 353 352 351 351 351 351 350 350 350 350 350 350 350 348 346 346 348 350 350 348 349 350 350 351 350 350 351 352 350
339 345 347 351 358 359 359 361 362 354 349 349 351 358 361 357 358 358 357 354 350 349 351 352 354 351 351 351 349 350 349 346 347 349 348 350 351 351 351 351 351 350 349 349 349 348 348 348 350 352 350 349 348 347 346 346 344 343 343 345 347 348 349 350 350 350 351 352 353 353 353 352 352 352 351 350 350 349 349 349 349 347 345 346 347 347 348 348 350 351 350 350 351 351 351 350 348
343 347 348 351 356 357 359 359 357 356 356 358 355 359 359 356 358 356 355 355 352 351 352 353 352 351 350 349 348 348 347 346 347 349 349 350 351 351 351 351 351 351 349 349 348 348 348 348 351 351 350 350 349 347 346 345 344 343 344 346 347 348 349 350 350 351 351 352 352 353 353 353 352 352 352 351 350 349 349 349 348 347 346 346 347 347 347 349 349 350 349 349 351 350 350 348 347
348 351 353 354 358 357 361 356 354 359 360 360 358 359 358 356 357 355 355 355 354 352 352 352 349 351 352 349 349 349 348 348 348 349 350 350 351 351 351 351 351 351 350 349 348 349 349 348 351 351 351 350 349 348 346 343 341 342 343 345 346 347 349 350 351 352 352 352 351 352 353 353 352 352 352 352 351 350 349 349 349 347 346 346 347 348 348 350 350 349 348 349 350 349 348 347 347
350 354 356 358 363 362 362 356 356 362 359 358 358 358 357 356 356 356 356 355 355 353 352 350 348 353 352 349 352 352 350 349 349 350 351 351 351 351 351 351 352 352 351 349 349 350 349 349 352 352 352 351 349 347 343 340 341 342 344 345 347 348 349 350 351 352 352 352 352 352 352 352 352 352 351 352 352 350 349 350 350 348 348 347 347 348 348 349 349 348 348 351 351 348 348 347 345
349 354 358 360 364 361 358 357 359 362 360 358 357 357 357 356 356 357 357 356 354 353 353 350 348 354 353 351 353 351 350 351 350 351 351 351 351 351 350 351 352 352 351 350 350 350 348 350 352 352 351 350 349 345 342 343 344 346 347 348 348 349 349 351 351 350 351 350 350 351 352 352 351 351 351 352 351 350 349 350 351 349 349 348 348 348 347 348 348 349 350 351 350 347 347 346 344
352 355 359 362 360 355 353 357 360 361 361 358 357 358 357 356 357 357 357 357 354 354 353 349 349 352 352 352 352 350 350 351 350 351 351 351 350 351 351 351 352 352 352 351 351 350 349 350 352 351 349 348 347 345 344 346 348 348 348 348 349 349 349 350 350 350 349 348 349 351 352 351 351 352 352 352 351 350 349 350 350 349 349 348 349 350 349 349 349 351 351 351 348 347 346 345 346
356 357 358 361 355 350 351 354 359 362 360 357 358 357 357 357 357 357 357 356 354 353 351 350 351 350 350 351 351 350 351 351 350 351 350 350 350 351 351 351 352 352 353 352 350 350 350 351 352 350 347 348 347 345 346 348 349 349 349 349 349 349 348 348 348 349 349 349 350 351 352 351 351 352 351 350 350 349 349 350 350 350 350 350 351 351 351 351 350 351 351 351 348 347 346 346 347
357 361 361 361 355 352 354 354 359 361 360 359 358 357 357 357 358 358 357 356 354 353 350 351 352 348 350 351 350 350 350 351 350 351 350 350 350 350 351 351 352 352 352 352 351 351 351 351 350 348 347 348 347 346 347 348 349 349 350 350 350 349 349 349 349 348 348 349 351 351 351 350 350 351 350 349 349 348 349 349 349 350 349 350 351 350 351 351 351 350 350 351 349 347 346 345 345
355 362 363 362 358 359 358 357 360 361 360 360 359 357 356 357 359 357 356 356 354 354 351 350 348 347 350 350 350 349 349 350 350 350 350 350 350 350 351 351 352 352 351 351 351 351 351 350 349 348 349 349 347 348 348 348 348 350 351 350 350 350 350 349 349 349 348 349 350 349 350 350 350 351 350 350 350 348 348 348 349 350 349 349 351 351 350 349 349 349 349 350 349 349 347 345 343
354 360 363 362 359 361 360 359 360 357 357 360 358 356 357 358 358 355 355 356 355 354 351 348 346 348 350 350 351 348 348 350 350 350 350 350 350 350 351 351 351 351 351 350 351 351 350 349 349 350 350 349 348 349 350 349 349 350 350 349 349 350 350 348 348 349 348 348 348 348 349 350 350 351 351 350 349 349 349 348 348 349 349 349 351 351 348 346 348 348 348 349 349 349 348 347 347
353 356 362 363 358 359 360 360 359 355 356 360 357 356 357 357 355 354 355 357 355 350 348 348 347 350 350 350 350 347 349 350 350 350 349 350 350 350 350 350 351 351 351 351 351 351 349 349 350 351 349 349 349 349 351 350 350 350 350 349 349 349 348 347 348 349 347 346 347 347 349 350 350 350 351 350 349 349 350 349 349 349 349 350 350 349 347 346 347 347 348 350 350 350 350 350 350
352 356 363 361 356 356 357 361 360 356 358 359 356 356 358 356 354 355 356 354 352 348 348 348 347 350 348 346 348 348 350 350 350 349 349 350 350 350 350 350 351 351 351 351 351 349 349 350 351 351 350 350 350 350 350 350 350 349 349 350 348 348 348 348 348 348 347 346 346 347 350 350 350 350 350 349 350 350 349 350 350 350 349 350 350 348 347 347 347 347 348 350 350 350 351 351 350
353 358 364 359 355 356 357 362 359 355 359 359 356 357 358 356 355 355 354 351 350 350 349 347 346 348 347 347 348 349 350 350 350 349 349 350 349 350 350 350 350 350 351 351 350 348 349 351 351 351 350 350 350 349 349 349 349 349 349 349 349 349 349 348 348 348 347 347 347 348 350 350 350 349 350 349 349 349 349 349 349 350 350 349 349 347 347 347 347 347 348 349 349 350 351 351 351
355 361 364 360 359 358 359 362 358 358 360 358 357 357 358 357 356 354 352 352 352 352 350 348 348 349 350 350 350 350 350 350 350 349 349 350 349 349 349 350 350 350 351 350 349 349 350 351 351 351 350 349 349 349 349 349 348 348 349 349 349 349 348 348 348 348 346 346 347 348 350 350 350 350 350 350 349 349 349 349 349 351 351 349 348 348 347 347 346 347 348 348 348 349 350 350 350
356 362 365 363 364 361 359 359 357 359 359 357 358 357 357 357 355 354 354 354 353 352 351 349 349 349 350 351 350 350 350 350 349 349 348 348 348 348 348 349 349 350 350 350 350 351 351 351 351 350 349 349 348 348 349 350 349 349 349 348 348 348 348 348 348 347 346 347 347 348 350 350 350 350 350 350 349 349 349 349 350 350 350 349 349 348 347 347 346 347 349 349 348 348 348 349 350
355 359 364 364 361 361 359 358 358 359 357 357 358 357 357 356 355 355 354 354 353 353 351 350 351 350 348 349 351 350 350 349 348 348 348 348 348 347 348 348 348 349 350 351 351 351 351 350 350 350 349 348 347 349 350 349 349 349 349 349 349 348 347 348 348 347 347 347 346 348 351 350 350 350 350 350 350 349 349 349 350 350 349 349 348 348 347 348 348 349 349 348 348 349 350 351 351
356 357 363 362 359 363 361 358 358 357 357 359 358 357 358 357 355 355 354 354 355 353 350 349 350 349 348 348 350 350 349 348 348 347 347 348 348 347 347 347 349 349 351 351 350 351 350 350 350 349 349 348 347 349 349 349 349 350 350 349 349 348 347 348 348 348 348 348 347 348 350 350 349 350 350 350 349 349 350 350 350 350 350 349 349 349 349 349 350 350 349 349 349 350 351 351 351
357 358 359 359 359 364 361 358 359 357 358 359 358 357 358 357 356 355 354 355 355 352 350 348 348 348 348 347 349 350 349 349 347 347 347 348 348 348 347 348 349 350 351 350 350 350 350 350 349 349 348 347 347 349 349 349 350 350 350 349 349 348 348 349 349 349 348 347 347 348 349 350 348 349 350 349 349 349 349 350 350 350 351 350 349 349 349 348 349 350 350 350 350 350 350 350 349
357 358 357 356 358 363 361 358 359 358 358 360 357 357 357 358 357 354 354 356 353 350 349 348 348 349 349 350 349 348 348 349 347 347 348 348 348 348 348 348 349 350 351 350 350 350 349 350 349 349 348 348 348 349 349 350 349 350 350 349 348 347 349 350 349 348 347 346 346 346 349 350 349 349 350 349 348 348 347 349 349 349 350 349 348 348 348 347 348 349 349 350 350 350 350 349 348
356 357 357 357 358 360 359 358 358 358 359 359 357 357 358 359 358 355 355 354 350 349 349 349 350 351 351 350 349 348 349 349 348 348 349 348 349 348 348 349 349 350 350 350 349 350 349 349 349 348 348 348 349 350 350 350 350 350 350 349 349 348 350 349 348 347 346 346 345 346 348 349 349 349 349 349 349 348 348 348 348 348 348 347 346 345 347 347 348 348 348 348 349 349 349 349 349
356 354 357 358 358 358 358 357 357 358 359 358 357 358 359 358 356 356 357 353 350 350 349 350 350 350 350 348 347 350 350 349 348 348 349 348 349 349 349 349 349 350 350 350 349 349 350 349 349 349 348 348 349 350 350 349 351 351 349 350 350 349 349 347 346 347 346 346 346 346 347 349 349 348 348 347 347 348 347 346 346 347 346 345 344 344 345 348 348 348 348 348 347 347 348 349 349
354 355 358 359 357 357 358 359 358 358 359 357 358 360 358 356 356 357 356 352 349 349 349 348 348 348 348 348 348 350 350 349 349 348 348 348 348 349 349 349 350 350 350 350 349 349 350 349 349 349 348 349 350 350 350 349 350 351 349 350 350 348 348 347 347 348 347 347 347 346 346 348 348 347 347 347 346 346 345 344 345 346 343 343 345 344 344 347 348 348 347 348 347 346 347 347 347
354 356 357 358 357 357 358 359 359 358 358 358 360 360 357 356 358 358 354 351 350 349 349 348 347 348 347 348 348 351 351 349 349 348 348 348 349 349 349 350 350 350 351 350 349 349 350 350 350 349 348 349 350 350 350 349 349 350 349 349 349 348 348 348 347 348 347 347 346 346 346 346 347 347 347 347 347 347 346 345 345 345 345 343 344 343 344 345 346 347 346 347 346 345 346 345 346
355 357 357 357 357 357 358 361 359 358 360 358 359 359 357 356 358 358 352 350 350 349 350 348 348 348 347 348 348 351 351 349 349 348 348 348 348 349 350 351 350 351 351 350 350 350 350 350 350 349 349 350 351 350 349 348 348 349 349 349 348 348 348 348 348 348 347 347 346 346 346 345 346 347 347 347 348 348 348 347 347 347 347 346 345 345 345 345 346 346 346 346 345 345 346 346 346
355 355 359 358 358 359 358 360 360 359 360 358 359 360 359 360 359 356 351 350 351 350 350 348 348 348 348 349 348 350 351 350 349 348 348 348 348 349 350 351 351 351 352 351 351 350 351 351 350 349 349 350 350 350 349 348 348 349 349 349 348 348 348 348 348 348 348 347 346 346 346 345 345 346 346 346 347 348 348 347 347 347 347 347 346 346 346 346 347 348 347 346 345 346 347 347 348
356 355 359 358 358 360 359 358 359 360 359 358 360 357 357 362 358 353 351 351 351 351 350 349 349 348 348 349 348 348 350 351 349 349 349 349 349 349 350 351 351 352 352 351 351 351 352 351 350 350 350 350 350 350 349 348 348 349 349 349 348 348 347 347 347 348 347 347 347 346 345 345 344 345 346 345 345 346 347 346 346 347 347 347 346 347 348 348 348 349 348 347 346 346 348 349 348
356 355 357 357 353 355 358 357 360 361 357 358 360 355 357 362 356 353 352 351 352 351 350 349 349 349 348 348 348 348 349 351 350 349 350 349 350 350 351 352 352 352 352 352 352 352 352 351 351 351 350 350 351 350 349 348 347 349 349 349 348 348 347 347 347 348 347 347 347 346 345 345 344 344 344 344 343 345 346 346 346 347 347 347 347 348 349 350 349 349 348 349 349 348 349 349 349
356 351 350 354 350 352 360 357 358 362 357 356 359 357 360 362 356 353 352 351 353 351 350 349 349 349 348 349 349 347 349 351 350 350 350 349 350 350 351 352 353 353 352 353 353 353 353 352 351 351 351 351 351 351 350 348 347 347 349 349 349 349 348 348 348 348 348 347 348 347 346 346 346 345 346 345 344 345 346 346 346 347 347 348 348 349 350 350 351 350 349 349 350 350 351 351 351
355 350 345 348 348 351 358 357 356 358 358 357 358 360 362 360 356 354 352 351 353 352 350 350 350 350 349 349 349 348 348 349 350 350 350 349 350 350 351 353 354 353 353 353 354 353 353 352 352 352 352 351 351 351 349 348 347 347 349 349 349 348 348 348 347 348 348 348 348 348 348 347 347 348 348 347 346 345 345 346 346 347 347 348 348 349 350 350 351 352 352 350 350 352 354 352 352
348 347 347 349 351 351 352 357 357 356 358 359 360 364 364 358 356 355 352 352 353 353 351 350 351 350 350 350 349 349 348 348 349 350 350 350 351 351 352 353 354 354 354 354 354 354 353 353 353 352 351 351 351 350 348 348 349 349 349 349 350 349 348 349 347 347 348 348 349 349 349 349 349 349 348 346 346 346 345 345 346 346 347 347 348 349 350 351 351 353 355 352 351 352 354 353 352
344 342 345 346 351 352 351 356 359 357 358 360 361 365 364 357 356 356 351 352 353 354 352 352 352 350 350 350 349 350 349 348 350 351 350 350 351 351 352 353 354 355 354 354 355 355 354 353 353 351 351 352 351 349 348 349 350 350 349 349 350 350 349 348 346 347 348 349 349 349 349 350 349 348 347 346 346 346 346 345 346 346 347 347 348 351 352 353 352 354 356 354 352 351 352 353 352
348 346 348 346 347 350 354 357 357 358 359 360 362 364 365 359 357 357 352 351 352 353 353 352 352 351 350 349 349 349 349 348 350 351 350 350 351 351 352 353 354 355 355 355 355 355 354 353 353 352 351 352 352 350 350 350 351 350 350 349 349 350 350 348 345 347 349 349 349 349 349 349 349 348 346 346 347 347 347 346 346 347 348 347 349 353 354 353 351 353 354 353 354 354 352 352 351
349 349 348 349 348 349 356 360 356 357 357 358 360 362 364 360 357 358 354 352 352 352 353 353 352 351 350 349 349 348 348 348 349 350 350 350 351 351 352 353 354 355 355 355 355 355 354 353 353 352 352 352 352 351 351 351 351 350 350 350 350 350 349 347 345 347 349 349 348 348 349 349 349 348 346 347 347 348 348 347 347 349 349 349 350 352 352 351 350 352 352 352 354 354 354 353 350
345 347 345 346 347 350 357 360 357 357 357 357 358 359 362 361 358 358 355 353 352 351 353 352 352 351 351 350 348 348 347 347 348 349 350 350 350 351 352 354 354 355 355 355 356 355 355 354 354 353 353 352 352 352 352 351 351 351 351 350 350 349 348 348 348 348 349 350 349 348 349 349 349 348 347 348 348 349 349 348 349 350 350 351 351 350 350 350 350 352 353 354 353 352 353 352 349
332 339 339 339 347 353 357 360 358 356 355 357 358 358 360 361 359 358 356 355 354 353 352 351 351 351 351 350 348 348 346 347 347 347 349 349 350 351 352 354 354 355 356 356 356 356 355 354 354 354 353 352 352 352 352 352 352 351 350 347 347 348 348 348 349 348 349 351 350 350 349 349 349 350 349 349 349 349 349 349 350 351 351 351 351 351 352 352 351 352 353 354 354 353 352 351 348
324 331 330 336 350 350 349 357 358 353 354 358 359 357 360 361 360 358 356 355 356 356 354 352 351 350 351 349 348 348 347 347 346 345 348 349 349 351 352 353 354 355 355 355 356 356 355 355 354 354 353 353 353 353 353 352 350 350 349 347 346 347 347 347 348 348 349 351 351 351 350 349 350 351 351 350 350 349 349 350 351 351 351 351 351 353 355 354 353 354 354 354 355 354 352 351 349
321 325 326 338 353 349 351 357 355 353 355 359 358 353 356 360 361 360 356 355 356 355 354 353 350 349 350 349 348 347 346 347 346 344 346 348 350 351 352 353 354 354 355 355 356 355 355 354 353 351 351 352 352 352 353 352 350 350 351 349 347 348 348 349 351 351 351 351 351 352 352 349 349 351 351 351 352 350 350 351 351 350 350 350 352 355 355 355 354 355 355 355 357 355 352 352 350
317 321 325 338 353 353 356 358 352 351 351 356 355 347 349 357 360 361 357 355 356 355 354 353 351 350 349 350 349 348 346 346 345 345 346 348 349 351 353 353 353 354 354 355 355 354 354 353 351 348 349 350 349 350 353 351 350 351 352 352 351 351 352 352 353 353 353 352 353 353 351 349 349 351 351 351 352 351 351 351 351 351 351 350 352 353 355 355 355 356 355 356 357 355 352 353 351
316 319 322 335 352 355 355 355 349 345 344 353 354 345 344 350 356 360 358 357 357 356 355 353 353 351 349 349 349 348 346 344 344 345 346 347 349 351 353 353 353 354 354 355 355 354 354 352 349 348 349 349 348 350 352 350 348 350 351 352 353 353 353 353 351 352 353 353 353 353 350 348 348 352 352 351 351 352 351 351 351 352 352 352 351 352 355 356 356 355 355 356 357 353 352 354 352
316 318 325 338 352 356 355 353 346 344 346 353 355 348 342 341 349 359 359 358 358 357 356 354 353 352 349 349 348 347 345 343 343 343 345 347 349 350 352 353 352 353 354 355 355 354 353 351 349 349 349 349 349 350 350 349 349 350 350 352 353 353 354 352 349 350 352 351 352 353 352 349 347 349 351 351 350 351 351 352 352 352 353 353 352 353 355 355 355 355 354 355 355 354 353 353 353
318 320 332 342 348 353 355 350 344 346 347 346 349 348 341 337 345 356 359 359 359 358 356 354 353 352 350 350 348 346 345 343 342 342 344 347 348 350 351 352 352 352 353 354 354 354 352 352 350 349 349 350 350 350 349 349 350 350 350 351 352 352 353 353 351 351 351 351 352 353 352 351 348 346 347 349 350 351 351 352 352 352 353 353 353 354 355 354 354 354 355 355 355 354 353 352 353
320 324 336 342 343 350 354 349 344 344 341 339 344 345 338 336 343 352 357 357 358 358 356 354 353 352 352 351 348 346 344 342 342 343 345 347 347 349 350 351 352 352 353 353 354 354 353 353 351 350 350 350 351 350 350 350 350 350 350 350 351 352 352 352 352 352 352 352 353 353 353 352 350 348 347 347 348 349 351 351 352 353 354 354 353 354 354 353 352 353 355 355 355 353 352 352 353
325 330 339 342 345 351 352 347 345 344 339 334 340 344 340 335 340 350 356 357 357 358 357 354 353 352 351 351 349 347 344 342 341 343 345 346 347 349 350 351 352 351 352 352 353 353 353 353 352 350 350 350 350 351 351 351 350 351 350 349 349 351 351 351 353 354 353 352 353 354 354 353 352 352 350 348 346 347 350 350 353 354 354 353 353 352 354 354 353 355 356 355 354 353 352 352 353
330 335 337 336 341 346 346 346 347 345 338 333 339 345 341 335 337 348 356 356 355 356 357 355 354 353 352 351 349 348 346 342 341 343 345 346 348 349 350 350 351 351 351 352 352 352 353 353 352 351 350 350 350 350 351 351 351 352 351 350 349 349 350 351 353 355 353 352 354 355 354 354 354 353 353 351 348 347 347 349 351 353 352 353 353 353 353 352 354 356 356 355 355 353 353 353 354
330 334 329 329 338 343 344 347 347 342 334 334 341 345 341 338 339 347 353 355 354 354 355 355 354 353 352 351 350 350 347 341 340 343 344 346 348 349 349 350 351 351 351 351 352 352 353 352 351 351 350 350 350 350 351 351 351 352 352 351 350 349 349 350 351 353 353 352 354 355 355 355 355 355 355 354 353 350 348 348 349 351 352 352 353 353 352 351 352 356 356 355 355 354 354 355 355
324 330 326 327 337 340 342 344 342 336 332 335 344 347 341 339 343 349 350 350 352 351 352 353 353 353 352 351 351 351 349 343 342 344 343 347 349 348 349 351 350 350 350 351 351 352 353 352 351 351 350 350 350 350 350 351 351 352 352 352 351 350 350 350 351 352 353 352 352 353 355 356 356 356 356 355 354 353 351 350 348 350 353 352 352 351 351 351 352 355 357 356 356 355 354 355 356
319 331 331 327 331 333 334 338 335 333 333 337 344 347 341 338 342 348 348 348 348 348 349 351 352 352 352 351 350 350 350 345 342 343 344 347 349 348 349 350 349 350 350 350 351 352 352 352 351 351 351 350 350 350 350 350 351 351 352 353 352 352 352 352 352 352 352 351 352 353 354 355 356 356 355 354 352 352 352 351 350 352 354 353 352 350 352 354 353 354 356 355 357 356 354 354 356
317 327 330 327 330 331 329 331 331 330 334 339 340 340 341 341 345 348 349 351 351 348 349 351 352 352 352 351 351 350 351 347 341 341 344 346 349 348 348 349 349 349 350 350 351 352 352 352 351 350 350 350 349 350 349 349 350 351 352 353 353 352 353 352 353 352 351 351 352 353 352 352 353 354 353 353 353 351 351 351 352 354 354 353 352 350 350 353 353 353 355 354 356 357 355 355 356
318 319 323 326 332 334 329 328 331 330 331 336 336 334 337 341 344 350 354 354 355 352 350 353 353 353 353 352 351 350 352 351 344 340 343 346 348 348 348 349 349 349 349 349 350 350 350 351 351 350 351 351 350 350 350 349 350 351 352 353 353 353 353 353 353 353 353 352 352 353 353 352 351 352 352 353 353 351 351 352 354 355 354 354 354 351 349 351 352 354 356 355 356 358 356 356 356
318 316 320 325 329 332 331 329 333 332 330 333 334 332 334 334 338 351 357 355 356 355 353 355 355 354 353 352 353 354 354 354 348 342 343 347 348 348 348 348 348 348 348 349 349 350 351 351 351 351 352 352 351 350 351 350 350 351 352 352 353 353 352 353 354 354 353 352 352 352 353 353 352 352 352 353 353 352 351 353 354 354 355 354 355 354 351 351 353 356 357 356 356 356 356 357 357
319 319 322 323 320 323 328 328 329 332 332 333 335 336 335 332 336 349 355 355 357 356 355 356 355 354 353 353 355 356 355 355 351 345 343 344 346 347 347 348 348 348 348 349 349 350 351 352 352 352 352 352 351 351 352 351 351 352 353 352 352 352 352 352 352 352 352 352 352 353 354 354 354 353 353 352 353 353 352 353 353 355 356 355 356 356 353 352 355 358 358 358 357 355 355 358 359
321 322 323 323 320 321 326 326 324 328 330 332 336 337 336 336 342 351 355 355 355 355 356 356 354 354 353 354 356 355 355 354 353 349 345 344 345 346 346 348 347 347 348 349 349 350 351 351 352 352 353 353 352 352 352 352 352 353 352 351 352 352 351 351 350 350 351 352 353 354 355 355 354 354 353 351 352 353 353 354 355 355 357 357 357 357 357 355 355 357 358 359 359 357 356 359 359
320 320 319 320 322 323 326 327 325 326 329 331 334 333 333 340 347 352 355 354 353 354 356 356 355 353 353 354 354 354 354 354 353 351 349 348 347 346 346 347 347 348 348 347 348 349 350 351 352 353 353 353 352 352 352 351 351 351 350 350 351 351 350 350 350 350 352 354 354 354 353 354 354 353 353 351 351 352 352 354 356 356 356 357 356 356 357 356 355 356 357 358 358 357 357 359 359
321 322 320 319 322 322 321 323 328 329 328 330 330 326 332 342 346 349 352 352 352 354 354 354 354 353 353 353 352 352 352 352 352 352 351 353 353 349 347 346 346 348 348 348 348 348 349 350 351 352 353 352 352 352 351 351 350 350 349 349 351 351 349 350 351 351 352 354 354 353 352 352 354 354 353 353 352 353 353 354 356 356 356 356 355 354 355 356 356 356 357 358 359 358 358 360 359
Wind_Speed
11 11 12 14 10 6 3 1 1 1 0 1 2 2 2 3 5 8 10 11 9 6 6 9 11 7 4 4 6 7 6 5 1 1 3 4 12 17 16 18 17 16 15 13 13 13 14 14 14 15 14 13 14 14 14 13 13 13 12 12 12 13 13 13 13 13 13 13 13 12 12 12 11 11 11 12 12 12 13 13 12 13 15 16 15 17 17 15 14 14 14 15 17 17 17 18 17
12 13 14 11 5 2 1 1 1 2 1 2 2 2 4 5 7 10 11 10 8 8 9 11 9 6 6 8 7 7 7 6 3 2 4 11 17 14 17 19 16 16 13 12 12 12 13 13 14 15 14 14 14 14 13 13 12 12 11 11 11 12 12 12 12 13 12 12 12 11 11 10 11 11 11 12 12 12 12 12 12 12 15 16 17 17 16 14 14 13 14 16 17 17 16 17 18
14 14 12 7 2 0 1 1 1 2 2 3 3 3 5 7 8 10 9 8 10 12 12 11 8 6 6 9 4 3 5 5 6 7 7 16 16 12 17 17 15 15 12 12 12 12 12 12 14 14 15 14 13 13 12 12 11 11 10 10 10 11 11 11 11 12 12 12 11 11 10 9 9 11 12 12 12 13 12 12 12 12 14 15 17 17 15 14 14 13 15 17 18 17 15 16 17
15 13 9 3 1 0 1 2 1 2 3 3 3 4 6 8 10 10 8 9 12 14 12 10 7 4 3 7 3 3 5 5 8 9 10 14 13 15 18 16 15 14 13 12 12 13 12 13 14 13 14 13 13 12 12 11 10 10 10 10 10 10 10 10 10 11 11 11 10 10 11 10 9 9 11 11 11 12 12 13 13 13 15 15 16 17 16 15 15 14 15 17 17 17 15 15 16
13 11 6 2 0 0 1 2 1 2 3 3 4 5 7 10 11 11 10 11 12 13 10 7 6 4 5 6 2 1 5 7 10 10 12 13 14 18 18 17 15 14 14 12 13 13 12 13 13 13 14 13 12 11 11 10 10 9 9 9 9 9 9 9 10 10 10 10 10 10 10 11 11 9 9 10 11 11 12 13 13 13 15 16 15 15 16 16 15 15 15 16 16 15 15 16 17
11 8 3 2 1 1 1 2 2 3 2 1 4 7 9 10 11 14 13 10 9 10 8 6 7 8 6 5 3 3 4 6 10 10 12 14 16 19 18 16 14 14 14 13 14 13 12 13 12 13 13 13 12 11 10 10 10 9 8 9 8 8 8 8 8 9 9 9 9 9 10 11 11 10 9 9 10 10 11 12 12 12 13 14 14 14 15 15 15 16 16 16 14 14 16 17 17
8 5 1 0 1 1 1 2 3 3 2 1 6 10 10 11 12 15 15 11 9 7 6 7 9 9 7 3 4 4 2 5 11 11 12 16 18 18 17 16 14 14 13 13 14 12 12 12 12 12 12 12 12 10 10 10 9 8 8 8 7 7 7 7 7 7 8 8 9 9 9 10 10 11 11 10 10 9 11 12 11 12 12 13 14 14 14 15 14 15 16 14 13 13 16 18 17
4 1 0 1 1 1 1 3 3 2 3 4 8 10 11 11 11 14 14 11 9 7 7 9 9 8 6 3 4 4 3 7 11 13 15 18 18 18 16 15 15 14 13 14 13 12 12 11 11 11 11 12 11 11 10 9 8 8 8 7 7 6 6 6 6 6 5 5 7 8 8 10 10 10 11 12 11 8 9 11 10 11 11 11 13 13 14 15 15 16 15 13 13 14 17 18 17
1 1 1 1 1 1 2 3 4 4 5 8 9 10 11 9 8 12 12 9 9 9 8 7 4 5 7 7 6 4 6 10 13 16 18 18 18 17 15 14 14 14 14 13 12 12 11 11 11 10 11 10 10 10 9 9 8 8 8 7 6 6 6 5 6 6 5 4 4 6 7 8 8 8 9 10 11 8 8 10 9 10 11 11 12 13 14 15 15 15 14 14 14 15 16 17 18
1 1 1 1 1 3 3 3 5 6 8 9 9 10 8 6 8 11 11 10 10 9 7 5 5 8 9 8 7 5 8 13 17 19 17 17 17 16 14 14 14 14 13 13 13 12 11 11 10 10 10 8 8 9 8 9 9 9 8 7 6 4 4 5 5 6 5 5 5 5 5 6 7 7 9 10 12 9 8 9 10 10 11 12 13 14 15 14 15 15 14 15 15 15 17 18 17
1 0 1 1 2 3 3 5 6 7 9 9 9 7 5 6 8 9 11 11 8 9 9 6 9 12 10 8 5 6 11 15 18 19 17 17 16 15 14 14 14 13 12 12 13 12 12 11 10 10 9 7 8 8 8 9 9 8 7 6 6 4 4 5 5 5 6 6 6 6 5 5 6 6 8 11 13 11 10 10 11 12 11 12 13 14 15 14 16 16 15 16 16 16 16 17 16
1 2 1 1 1 2 4 6 8 8 9 9 8 5 3 6 8 9 12 11 9 11 7 4 8 9 9 8 5 9 14 15 16 17 17 16 15 15 13 13 13 12 12 12 12 12 11 11 10 9 8 7 8 8 8 8 8 8 7 7 6 5 5 4 6 7 8 8 8 9 5 4 6 6 8 11 12 12 11 12 13 13 12 12 13 13 15 16 17 16 17 17 16 16 17 17 17
1 2 1 1 1 2 5 6 8 9 8 8 8 5 2 5 8 9 11 11 9 9 6 5 9 7 8 9 7 10 14 15 16 15 15 15 15 14 13 13 13 12 12 12 12 11 11 11 10 8 7 7 8 8 8 8 8 7 7 7 7 6 5 5 7 9 9 9 9 9 5 3 6 7 10 11 12 11 11 12 13 13 14 13 12 12 14 17 16 16 18 18 16 16 17 18 18
1 1 2 1 1 3 5 7 8 9 8 7 7 5 3 4 6 7 11 12 7 6 8 9 9 8 9 9 7 9 12 16 16 14 14 13 13 13 12 12 12 12 12 11 11 11 10 10 9 8 8 7 8 9 9 8 7 7 7 7 7 6 6 6 9 10 10 9 8 9 7 5 7 8 10 12 12 13 13 13 12 13 14 14 14 12 14 16 16 17 18 18 17 17 16 16 17
1 1 1 1 3 4 4 6 9 8 7 8 7 6 6 5 5 7 7 9 7 6 9 9 4 4 9 10 8 10 15 18 16 15 14 13 13 12 12 11 11 11 11 10 10 10 10 10 8 7 8 7 7 8 9 8 7 7 8 7 6 7 8 8 9 11 11 8 8 11 9 7 8 9 10 12 12 13 14 13 12 12 13 14 14 13 13 15 16 16 17 17 17 16 16 14 14
1 1 0 1 4 4 3 5 9 8 7 8 8 7 10 7 5 5 4 6 10 8 6 5 0 1 9 10 12 17 19 20 17 16 15 13 13 12 11 10 11 10 10 10 9 10 9 8 8 7 7 7 7 7 7 7 7 7 7 7 7 8 9 10 11 12 11 9 8 12 9 6 8 9 10 11 11 13 14 13 13 12 12 13 13 13 14 15 15 15 16 16 16 15 15 14 12
1 1 0 1 3 4 4 7 7 7 9 10 8 7 10 9 5 5 5 9 12 8 6 5 3 5 10 13 19 23 21 20 19 18 16 14 13 12 11 10 11 10 10 9 8 9 8 7 7 6 6 6 6 6 7 6 6 7 8 8 8 9 10 11 12 13 12 10 10 12 10 7 8 9 10 10 11 13 14 14 14 13 12 13 13 13 14 15 14 14 14 15 15 14 14 13 12
2 1 1 0 2 2 4 7 6 7 11 11 9 8 10 12 9 7 8 10 11 10 9 9 9 11 15 19 23 23 21 20 19 19 17 15 14 13 12 12 12 11 9 8 7 8 8 7 6 6 6 5 5 6 6 6 6 7 7 8 9 9 10 13 13 12 11 10 12 13 9 8 10 11 11 11 11 12 13 14 14 13 12 13 13 13 14 15 14 13 13 13 13 12 12 12 10
2 1 1 1 0 1 2 6 6 7 12 13 10 9 10 13 11 8 9 11 11 12 10 11 13 14 17 21 22 21 21 20 18 18 17 16 15 15 14 13 13 12 10 8 7 7 7 7 6 5 5 5 5 5 6 6 7 7 8 8 9 9 10 13 13 13 12 10 11 12 9 9 11 12 12 13 13 12 13 14 13 13 12 12 13 14 14 14 14 12 12 11 11 10 10 9 9
2 1 1 1 1 2 2 5 5 7 13 14 12 10 10 11 10 7 10 13 11 11 12 12 14 16 18 19 21 22 20 18 18 17 16 16 15 14 14 14 13 12 10 8 8 7 6 7 6 5 4 4 5 6 6 7 8 8 8 8 8 9 10 12 13 14 12 10 10 10 8 9 11 12 13 14 15 14 14 14 13 13 13 11 12 14 14 13 12 11 10 10 10 9 8 8 8
1 1 2 3 2 2 3 4 7 9 12 12 12 12 11 9 7 8 13 12 8 9 11 14 17 19 20 19 20 21 19 18 17 16 16 15 15 14 13 13 12 11 9 8 7 7 7 6 6 5 4 4 5 6 7 7 8 8 8 8 8 9 11 12 13 13 12 9 9 7 7 9 11 13 14 15 16 16 16 15 14 14 13 12 12 13 12 11 11 10 9 9 9 8 8 7 8
1 1 2 3 2 2 4 5 9 11 11 11 12 13 11 9 7 10 11 7 6 8 10 14 18 19 20 20 20 19 19 18 17 16 15 15 14 13 13 13 11 10 9 8 7 7 7 6 6 5 4 5 6 7 7 7 7 8 7 7 8 9 11 12 11 12 11 9 7 5 7 9 11 13 15 16 16 16 17 16 16 15 13 12 12 11 10 10 9 9 8 8 8 8 8 7 7
1 1 2 3 3 3 3 5 9 11 11 11 11 11 10 10 9 8 5 3 7 10 10 14 16 19 21 20 20 18 17 16 16 16 15 15 14 13 13 13 11 10 8 8 7 7 7 6 6 5 5 6 7 7 8 8 7 8 7 7 8 9 10 10 10 11 11 8 5 4 6 8 10 11 12 13 14 15 15 15 14 13 12 11 10 10 9 9 8 8 8 8 8 8 7 7 7
3 2 4 4 4 4 4 6 8 10 11 10 10 10 10 10 10 7 4 6 11 12 13 16 18 21 20 18 17 16 15 15 15 14 13 13 12 12 12 11 11 10 8 8 8 7 7 6 6 6 6 6 7 7 8 8 7 7 8 8 7 9 9 9 11 11 10 8 6 4 4 6 9 10 11 11 11 12 13 12 12 11 11 10 9 9 9 8 8 7 7 7 8 8 8 7 7
5 1 4 4 4 5 5 8 10 10 9 9 10 10 8 8 9 6 5 9 13 14 16 18 19 20 18 16 15 14 14 14 13 13 12 10 10 11 10 10 10 9 9 9 8 8 7 7 7 6 7 7 7 7 7 8 8 7 8 8 8 8 9 10 11 10 10 9 6 5 4 6 8 9 10 10 10 11 11 11 12 11 11 10 9 8 8 7 7 6 7 7 8 8 8 7 7
4 3 5 5 6 6 6 9 10 9 7 9 12 9 6 6 6 6 6 11 15 16 18 18 19 18 16 14 14 13 13 14 14 13 11 10 10 10 10 10 9 9 8 8 8 8 7 7 7 7 8 7 7 7 7 7 8 7 7 8 7 8 9 10 10 9 9 8 7 6 6 7 8 8 9 10 10 10 11 11 11 11 10 10 8 8 7 7 6 6 6 7 7 8 8 8 8
6 7 8 7 8 7 6 9 9 9 7 8 12 10 6 3 1 4 7 12 15 17 18 18 18 17 15 13 12 13 13 14 14 13 12 10 10 10 10 10 9 9 8 8 8 8 8 8 7 8 8 8 7 6 6 7 8 7 7 8 7 8 9 10 10 9 9 8 8 8 8 8 8 8 9 9 9 9 9 9 10 9 9 9 8 7 6 6 6 6 6 6 7 7 8 9 9
10 11 11 8 7 7 6 8 9 8 4 5 10 10 7 3 1 6 11 13 15 17 18 18 17 15 14 14 12 11 11 13 13 13 13 12 11 11 11 11 11 10 9 9 8 8 9 8 8 8 8 7 7 6 6 6 7 8 8 7 8 9 9 9 9 8 8 8 9 9 9 9 9 9 10 9 8 8 8 8 8 8 8 8 7 7 6 6 6 6 6 6 6 7 8 9 10
10 8 8 7 7 6 5 5 5 6 4 5 8 8 6 4 4 9 13 13 14 16 17 17 16 14 13 13 11 10 11 12 13 12 13 12 11 11 12 11 12 11 9 8 8 10 10 9 9 8 8 8 6 6 6 6 7 8 8 7 7 8 9 9 8 8 7 8 8 8 8 9 9 9 9 8 8 8 8 8 7 7 7 7 7 7 6 6 6 5 5 5 6 7 7 8 8
7 4 5 6 5 4 3 3 4 6 6 5 3 4 6 6 7 11 13 13 15 15 16 16 14 13 12 11 10 10 11 12 12 12 12 12 11 12 11 11 12 11 9 9 10 11 10 9 9 9 9 8 7 7 6 6 7 7 7 7 7 7 8 8 8 7 7 7 8 8 8 8 9 8 7 6 6 7 7 7 7 7 6 7 7 7 6 6 6 6 5 6 6 7 7 8 8
6 4 4 3 3 5 3 2 5 6 4 2 0 2 5 7 9 11 12 14 16 14 15 15 14 12 11 11 10 10 11 12 13 13 13 13 11 11 11 11 12 11 10 10 11 11 11 10 9 9 10 9 8 7 6 6 7 7 6 6 6 6 6 7 7 7 7 7 7 8 8 7 8 7 5 5 5 5 6 6 6 6 6 6 6 7 7 6 7 7 7 6 7 7 7 7 7
4 4 3 2 2 4 4 2 2 4 4 1 1 2 4 7 10 11 12 13 14 14 15 15 14 13 12 10 10 9 10 12 13 13 13 13 12 11 11 11 12 12 11 11 11 11 11 10 9 9 10 9 8 7 6 6 6 6 6 6 6 5 6 6 6 7 6 7 7 7 7 6 6 6 5 4 4 5 5 5 5 5 5 5 5 6 6 7 7 7 8 8 8 8 7 6 7
3 2 3 4 4 4 4 4 2 2 6 3 1 2 4 6 10 11 13 14 13 13 14 15 13 12 12 10 10 9 10 11 12 12 13 13 12 12 12 12 12 12 12 11 12 12 11 10 10 9 10 9 8 7 7 6 6 5 5 5 5 5 6 5 6 6 6 7 7 7 6 6 5 5 4 4 5 5 6 5 5 4 4 4 5 5 6 7 7 7 9 9 9 9 7 6 6
4 2 2 3 4 4 4 5 5 5 8 5 1 2 3 7 12 12 14 15 12 13 14 14 12 11 10 9 9 10 10 10 11 13 14 13 13 12 12 11 12 11 11 11 12 12 11 10 9 9 10 9 8 8 7 7 6 5 5 4 4 5 5 5 6 6 6 6 6 6 6 5 4 4 3 4 5 6 6 6 5 4 4 4 4 5 6 7 7 7 8 8 10 9 7 7 7
5 3 2 3 4 5 3 4 7 8 8 7 5 2 3 9 13 11 14 16 12 13 14 13 12 11 11 9 9 10 10 10 11 13 14 13 13 13 12 11 11 11 10 11 12 12 11 10 9 9 10 9 8 8 8 7 6 5 5 5 5 5 5 5 6 6 6 6 5 5 5 4 4 4 4 5 6 6 6 5 5 4 4 4 4 4 5 6 7 7 8 8 9 9 8 8 8
8 6 2 4 4 4 4 4 7 10 8 7 7 4 5 10 13 11 13 15 13 12 12 11 11 11 10 9 9 9 10 10 12 14 14 13 13 13 12 12 12 11 10 11 12 12 12 11 10 9 10 10 9 8 8 7 7 6 5 5 5 5 5 6 7 7 6 5 5 5 4 4 3 4 5 5 6 6 5 5 5 5 5 4 4 4 4 5 6 7 8 9 9 8 8 9 9
9 8 4 4 4 3 5 5 7 11 7 6 7 5 6 10 13 12 11 13 14 13 12 11 11 10 10 10 10 10 10 10 11 13 14 13 13 13 12 11 12 11 11 11 12 12 13 12 11 11 10 10 9 9 9 8 8 8 7 7 6 6 7 6 7 7 6 5 5 5 4 3 3 4 5 5 5 5 5 5 6 5 5 4 3 3 4 5 6 7 8 10 10 8 7 8 8
6 6 5 3 3 3 3 5 9 10 5 3 5 5 6 9 12 12 10 13 16 15 14 13 13 12 10 11 11 10 10 8 9 12 13 13 13 13 13 12 13 13 13 13 13 13 13 13 13 12 11 10 10 10 9 9 9 8 7 7 7 7 7 6 6 6 6 5 5 5 5 4 4 4 5 4 4 4 5 5 5 4 4 3 3 3 4 5 6 7 8 8 9 8 7 7 9
4 4 5 4 4 5 3 4 8 6 2 3 5 6 6 8 11 11 11 12 11 11 14 13 14 13 10 11 11 10 10 9 9 11 12 14 14 14 14 13 14 14 13 14 13 13 13 13 13 12 11 11 11 10 9 9 8 7 7 8 7 7 7 7 6 6 6 5 5 5 5 6 5 4 4 3 4 4 4 4 3 3 3 2 3 4 4 5 6 6 7 7 7 6 6 7 9
2 3 4 4 7 6 3 5 5 2 1 3 7 5 3 6 9 10 11 10 6 4 8 11 12 13 12 12 11 11 12 10 10 11 12 14 15 15 14 13 14 13 13 14 14 14 14 14 14 13 12 12 11 10 9 8 8 8 7 7 8 7 7 7 6 6 6 5 5 5 6 7 6 4 3 3 3 3 3 3 2 2 2 1 2 3 5 5 5 5 6 7 7 6 5 6 7
2 3 2 4 8 5 3 8 7 4 1 3 7 4 2 5 8 10 11 10 7 4 6 8 10 11 12 12 12 12 12 11 11 11 12 14 15 16 15 14 14 14 15 15 15 16 15 16 17 16 15 13 12 10 9 9 9 8 7 6 7 7 6 6 6 5 6 6 5 5 6 7 7 5 4 4 3 2 2 2 2 2 1 1 1 2 4 4 4 4 4 6 7 6 6 5 5
2 5 4 4 9 5 8 13 10 6 4 5 8 4 2 6 9 11 11 11 11 7 7 9 10 10 11 11 12 12 11 11 11 11 12 14 16 16 15 15 15 15 15 16 16 17 16 17 19 19 17 15 14 12 10 10 10 9 8 8 8 8 7 7 8 6 6 6 5 5 6 7 7 6 5 4 3 1 1 1 1 2 1 1 0 1 3 3 3 3 4 5 5 7 8 7 6
2 5 6 6 8 9 13 15 10 5 4 6 8 5 2 5 9 12 12 14 16 11 9 10 9 10 11 11 11 11 11 10 11 12 13 15 16 16 16 16 17 17 16 15 15 16 18 19 20 19 18 17 16 14 11 12 13 12 11 9 9 9 8 9 10 8 7 6 5 5 6 7 7 6 6 5 3 2 1 1 0 0 1 1 1 2 1 2 2 2 2 3 4 6 8 8 7
1 3 9 9 8 11 15 14 7 3 3 6 8 4 2 3 7 12 13 15 17 15 14 12 10 10 11 12 12 12 12 11 11 11 12 15 17 17 18 18 19 18 16 16 16 17 20 22 21 20 19 17 16 15 14 14 14 14 13 10 9 10 9 9 11 10 8 8 6 6 6 7 7 7 6 5 5 4 3 3 2 2 1 2 3 2 2 2 1 1 1 2 3 4 7 7 7
0 4 10 10 7 8 12 10 5 3 4 5 8 6 4 2 4 9 13 14 17 19 20 16 13 12 11 11 13 14 12 12 12 11 12 15 17 19 19 19 20 18 17 18 17 18 21 22 22 21 20 19 17 17 16 16 15 14 13 11 10 11 9 9 10 10 9 8 8 7 6 6 7 7 7 6 6 6 5 4 4 4 3 3 3 3 3 3 2 1 0 1 2 3 5 6 6
2 5 8 10 7 3 5 6 3 4 5 6 10 10 6 2 4 8 11 13 16 17 18 17 14 12 12 11 12 13 12 11 12 12 15 17 19 20 20 19 19 18 17 18 17 18 21 22 23 22 21 20 19 18 18 17 16 15 14 13 12 12 12 11 10 10 10 9 9 8 7 7 7 8 8 8 8 8 7 6 5 5 5 5 5 4 4 4 3 2 2 0 1 2 3 4 5
7 7 6 8 7 4 1 2 1 4 6 4 9 13 6 2 4 7 9 7 11 14 14 16 16 14 13 11 12 12 11 10 10 12 15 17 18 18 18 18 18 16 16 16 17 17 20 22 23 23 23 22 20 19 19 18 18 17 16 15 14 14 14 13 11 10 10 10 10 9 8 8 7 7 8 8 9 9 9 8 7 6 6 6 5 5 5 5 4 3 3 1 1 2 2 3 3
8 7 6 7 5 3 1 0 1 5 5 1 4 11 8 5 2 5 7 4 5 13 15 15 16 15 13 11 11 11 10 10 10 10 11 13 14 14 15 16 16 15 15 16 17 17 19 22 24 24 24 24 22 21 21 20 20 19 17 16 15 15 15 14 13 11 11 11 10 10 9 9 8 8 8 8 10 11 10 9 8 8 7 6 6 5 5 5 4 4 4 2 1 2 1 1 2
6 6 8 7 4 4 3 2 2 6 3 3 2 10 7 6 2 2 7 6 4 8 11 14 15 14 13 11 10 10 9 10 10 9 10 10 12 14 16 16 15 16 17 18 18 18 19 22 25 24 24 25 24 23 22 21 21 20 18 17 16 16 16 15 15 13 12 12 11 11 10 9 9 9 9 10 10 11 11 11 10 8 7 6 5 6 6 5 6 5 4 3 2 2 2 1 2
7 8 8 7 6 6 6 4 3 5 2 3 3 8 4 5 1 1 3 5 3 3 6 11 14 14 14 12 10 9 9 10 9 9 10 10 13 16 17 17 18 18 19 19 19 18 19 22 25 25 25 26 26 25 24 23 22 21 19 18 17 17 16 16 15 14 14 14 13 12 11 10 10 10 10 10 10 11 11 11 10 9 7 5 5 6 6 6 6 6 5 4 3 3 3 3 3
9 7 5 5 6 6 6 6 5 3 3 4 5 6 4 2 1 1 2 3 3 4 4 7 13 15 13 11 10 9 9 9 8 9 11 12 16 18 18 19 20 19 20 20 19 20 21 22 25 27 26 27 27 26 26 25 23 22 21 19 18 17 17 16 15 15 15 15 14 13 12 11 10 10 10 10 9 10 12 11 10 9 7 6 5 6 7 7 7 7 6 6 5 5 5 5 5
6 5 5 5 6 5 2 3 4 2 3 3 5 4 2 1 0 2 1 2 3 6 7 8 12 14 13 12 12 11 10 10 9 10 11 13 17 18 18 19 19 19 19 19 19 21 23 24 26 28 27 28 28 27 27 26 25 23 22 21 19 18 17 16 16 15 15 15 14 13 13 12 11 11 10 9 8 10 11 11 10 9 8 6 6 7 8 8 8 7 7 7 6 6 7 6 5
4 5 7 3 1 3 3 1 1 1 3 3 4 4 1 1 2 1 2 1 2 6 10 10 11 14 15 13 13 13 12 11 10 10 11 13 16 17 18 18 18 19 20 20 23 26 27 26 27 28 27 27 28 28 28 27 25 24 23 22 20 19 17 15 15 14 14 14 13 12 11 11 11 11 10 9 8 9 11 11 10 9 8 7 6 7 8 9 8 8 7 8 7 7 7 7 7
5 6 7 4 1 1 2 2 2 3 6 3 3 6 4 3 3 2 3 3 4 6 10 11 11 13 14 12 12 12 11 10 10 11 10 12 15 16 18 18 19 22 22 23 26 26 25 25 25 26 26 26 28 28 27 27 26 25 24 24 22 21 19 16 14 13 14 14 13 11 10 10 10 10 10 10 9 9 10 10 10 9 9 8 6 7 8 9 9 8 8 9 9 8 8 8 8
1 4 8 5 3 4 2 3 4 5 6 3 3 4 5 5 4 3 6 6 6 8 9 10 12 13 13 11 10 10 9 8 8 9 9 11 14 16 17 17 19 21 21 21 22 21 21 21 21 23 24 25 26 25 25 27 27 25 24 25 24 23 21 18 15 14 13 13 12 11 10 10 9 10 10 9 9 9 9 9 8 8 8 8 7 7 8 9 9 8 8 8 8 8 9 8 8
1 3 7 3 2 4 4 2 3 4 5 4 4 3 4 5 2 3 7 8 8 10 10 10 11 11 10 10 9 9 9 8 7 8 8 10 14 17 17 18 19 20 19 18 18 19 19 20 19 20 19 20 22 22 24 26 26 24 23 24 25 24 23 19 16 14 13 13 12 11 10 9 9 9 8 8 9 9 9 8 7 7 7 7 7 7 8 9 10 10 8 7 7 8 8 8 8
5 5 7 4 0 1 2 1 0 2 4 4 4 4 3 1 1 1 6 8 9 10 10 9 10 10 8 9 9 9 8 7 7 7 7 9 13 15 16 17 17 17 17 18 18 19 19 18 18 19 18 19 21 21 23 24 25 25 24 23 23 23 23 19 16 15 14 13 12 11 9 8 8 7 7 7 8 9 8 8 7 7 7 7 7 7 7 9 10 11 10 9 9 9 8 8 8
4 7 8 7 4 4 5 4 1 1 2 2 4 5 1 2 1 2 5 7 8 9 9 9 9 10 9 8 10 10 9 7 6 6 7 8 10 12 14 16 15 14 15 17 17 18 19 19 19 20 19 19 19 20 22 24 24 25 24 22 21 21 22 20 16 16 15 14 13 12 10 8 7 7 7 7 8 8 8 7 7 7 7 7 7 6 7 8 9 10 10 9 9 9 9 8 8
Wind_Direction
146 151 151 143 130 134 144 199 152 111 259 101 128 140 115 128 131 124 127 131 132 135 116 122 133 124 117 120 122 92 71 121 73 353 109 101 141 145 152 154 151 149 144 137 132 130 129 131 127 126 125 119 114 110 109 106 103 102 101 102 104 107 108 108 109 110 112 113 114 117 120 121 121 116 112 111 106 104 107 111 113 106 104 106 108 107 102 99 100 101 100 98 103 107 106 106 103
155 148 148 139 121 151 146 241 176 121 137 131 146 135 122 138 142 132 136 140 130 131 127 126 121 92 94 104 117 113 76 50 37 88 97 130 138 142 153 153 150 148 145 138 134 131 131 133 128 123 121 118 116 111 107 103 102 101 100 101 102 105 107 109 110 110 112 114 115 116 116 116 115 115 115 112 109 108 108 110 108 105 107 111 110 104 102 104 103 101 100 99 102 104 103 101 99
153 142 145 139 105 333 135 205 205 141 145 149 137 121 136 144 139 130 129 122 118 129 128 123 103 78 113 119 104 112 85 58 106 120 123 141 142 148 154 150 148 146 142 139 136 134 132 134 131 123 119 118 116 111 107 103 100 99 99 100 101 104 106 109 111 112 113 114 117 119 119 115 111 115 116 112 112 112 107 107 108 110 112 112 109 105 108 109 103 101 100 101 104 106 102 97 96
148 145 145 131 130 217 166 165 130 161 159 153 132 134 148 141 132 122 117 115 127 134 129 126 101 45 99 115 76 66 91 93 122 127 139 150 148 149 151 149 149 143 140 139 137 135 130 133 131 121 119 118 115 112 108 105 102 101 102 104 104 103 105 109 112 115 116 117 119 120 123 121 115 113 114 112 113 114 111 109 109 116 116 112 113 115 114 109 104 102 101 102 105 108 107 103 100
145 152 147 55 276 174 188 154 132 182 162 152 138 142 145 137 129 122 120 121 136 139 130 125 104 83 73 79 36 78 102 112 133 136 143 149 143 145 148 149 147 142 141 139 138 134 130 133 129 122 121 120 117 113 109 107 105 104 103 104 104 104 105 107 112 117 120 123 123 123 123 123 122 119 115 115 117 117 117 115 114 119 119 117 119 118 114 110 109 107 105 103 106 112 112 109 104
142 153 159 2 341 290 234 158 146 144 104 155 138 135 140 136 129 127 124 113 123 127 118 106 111 121 94 63 47 92 110 119 141 146 146 147 143 144 146 146 144 140 142 142 139 134 131 133 130 126 124 121 117 112 108 105 103 102 101 102 101 102 102 105 112 119 124 128 130 129 127 123 124 126 124 120 120 121 123 122 125 127 122 120 115 113 113 112 112 112 108 106 111 118 114 109 106
144 152 159 332 234 248 200 137 134 120 68 142 133 133 137 135 133 133 129 119 116 109 100 109 120 117 100 100 86 81 87 123 142 147 147 146 143 143 145 146 142 140 142 141 139 136 134 133 132 128 121 118 113 108 103 101 102 102 104 103 101 100 100 106 111 115 122 132 136 134 132 128 128 132 133 126 120 125 128 122 127 132 126 122 115 115 117 113 111 105 103 108 118 120 113 108 104
151 163 195 169 230 205 139 114 113 94 92 116 122 130 135 136 141 140 137 133 130 121 116 126 128 104 98 135 105 83 102 125 135 138 142 143 143 143 145 146 141 141 142 141 140 138 136 134 132 125 118 113 106 103 102 104 106 107 105 101 99 96 97 106 112 110 113 127 135 137 135 130 131 134 134 126 120 125 122 115 120 128 127 125 118 116 116 112 109 104 107 117 119 112 107 105 99
137 340 248 168 255 145 118 113 109 98 113 123 123 128 129 135 146 142 136 123 122 122 121 137 139 104 113 112 99 103 114 123 128 132 139 142 144 143 145 148 144 143 143 143 141 139 138 135 132 124 115 107 100 100 106 109 108 107 101 97 96 96 106 118 122 118 116 115 115 123 124 122 125 127 123 116 113 112 100 100 108 118 123 119 112 113 114 111 111 115 119 119 111 102 99 97 92
73 25 275 243 189 147 129 118 116 115 122 127 126 127 127 136 144 139 128 118 122 117 110 112 104 117 124 105 95 109 118 127 131 134 140 143 145 143 146 150 147 145 143 143 141 139 138 136 132 123 113 103 97 100 105 104 103 103 99 97 95 100 115 122 122 122 118 109 97 93 94 102 111 114 111 106 106 106 98 103 110 116 123 120 120 121 119 116 116 119 116 108 102 97 94 91 88
338 171 262 266 147 148 136 124 121 118 123 125 122 121 123 132 131 128 119 116 119 118 121 109 106 121 118 100 91 113 124 132 136 138 142 144 146 144 147 151 149 145 141 141 138 136 136 136 128 118 113 102 96 100 100 97 99 100 101 102 98 97 100 108 108 103 93 87 83 73 67 83 101 113 115 116 117 121 125 124 118 118 126 125 126 125 120 114 112 113 106 100 98 96 94 91 87
312 285 267 119 105 133 135 128 125 123 131 134 132 125 122 137 130 129 124 121 125 125 130 125 128 131 114 106 108 124 132 138 140 141 143 145 147 147 147 149 149 144 140 138 135 135 135 134 124 118 112 101 98 101 99 97 98 99 103 101 97 94 92 97 88 85 85 78 74 70 69 93 112 114 109 116 120 124 124 119 113 114 123 121 118 117 111 105 103 104 101 98 98 99 97 93 84
279 322 343 81 59 133 132 130 133 134 141 141 138 132 123 135 131 131 125 122 130 129 121 131 145 135 108 113 120 131 139 144 143 142 145 147 149 149 147 147 147 144 141 139 135 135 134 130 123 121 113 103 105 103 101 101 103 103 101 96 94 92 88 89 81 82 85 82 84 87 88 95 103 98 95 102 108 110 107 107 112 116 120 117 109 103 101 101 100 98 96 94 97 99 97 94 89
258 343 345 61 120 141 129 134 144 143 144 141 133 132 113 99 119 128 122 119 113 112 114 127 140 121 116 126 131 144 146 147 146 145 147 147 149 150 147 146 146 144 142 141 138 136 134 130 126 123 114 109 112 107 106 106 105 101 93 93 95 94 91 88 84 82 82 86 101 104 89 65 76 86 95 102 105 108 103 103 110 114 116 114 107 99 97 100 99 97 96 95 97 99 96 96 99
271 330 349 115 138 142 138 147 152 148 146 144 138 130 108 82 113 121 110 110 101 108 118 126 134 124 147 154 149 152 148 149 148 146 148 146 148 149 147 145 144 144 141 142 142 136 134 132 128 121 116 115 116 112 109 103 94 89 87 92 94 92 88 83 82 82 87 93 100 96 79 63 74 81 91 97 101 103 100 100 102 104 107 105 105 104 100 96 94 95 96 96 97 99 98 99 103
194 295 282 144 153 156 157 157 154 153 150 143 140 130 109 93 102 96 66 102 118 128 123 126 294 158 156 150 141 145 146 148 147 147 149 145 146 148 148 147 145 145 144 144 141 136 135 135 130 120 118 118 116 115 108 97 88 90 92 93 91 88 86 84 84 88 97 100 94 89 80 74 85 86 89 95 99 98 98 102 103 102 104 104 106 108 101 91 89 91 93 94 95 98 101 103 102
172 271 285 133 165 169 161 166 162 149 145 141 145 141 122 115 95 84 92 110 122 121 94 94 82 112 129 126 132 140 144 145 146 148 149 146 149 152 151 151 149 150 147 143 140 140 140 139 132 122 123 124 121 118 111 99 95 102 99 96 93 89 90 91 90 96 103 105 96 92 89 86 90 91 93 99 100 98 100 103 104 103 106 109 107 103 98 92 90 90 88 89 93 99 103 102 99
233 302 42 229 175 153 163 167 150 135 143 145 151 149 136 132 121 116 113 108 112 103 91 96 96 99 108 118 130 139 143 146 149 150 150 152 156 159 157 156 155 153 149 144 144 148 148 144 136 130 130 130 127 120 114 105 104 109 105 103 98 92 94 93 93 97 101 99 94 91 91 89 92 95 97 100 99 100 102 102 102 104 109 111 109 104 98 94 91 87 86 88 93 98 99 97 92
248 313 37 271 263 53 151 157 135 138 150 147 149 148 143 137 132 140 133 125 122 111 110 114 111 111 116 125 133 141 146 149 154 155 155 158 161 162 159 158 157 156 153 150 152 154 155 151 144 139 134 133 132 122 116 111 110 109 109 112 106 101 96 94 94 93 94 92 89 90 93 98 100 101 102 106 105 102 99 98 101 107 110 109 106 102 95 91 88 87 90 94 95 93 92 92 87
230 253 341 325 349 28 97 148 136 136 146 145 147 145 141 140 140 150 141 137 136 131 135 135 131 134 136 138 141 146 150 152 156 159 160 161 162 162 160 160 159 158 155 152 155 158 160 158 153 148 142 142 139 128 117 117 119 112 112 116 110 107 101 97 95 94 96 91 86 92 100 108 110 108 107 109 110 109 105 103 104 106 109 109 103 97 94 95 96 98 98 96 91 86 85 83 78
208 224 343 358 339 51 85 136 135 134 143 138 140 142 139 141 141 146 143 142 146 149 151 149 148 148 147 147 148 151 153 154 159 161 161 161 161 162 162 162 158 155 153 151 156 162 166 164 160 154 150 153 146 131 122 124 123 113 112 115 112 113 107 98 95 95 97 92 90 100 106 107 111 112 109 108 110 114 115 114 113 111 111 114 111 108 108 108 106 105 101 94 87 81 79 75 72
242 251 314 347 328 47 89 134 132 133 135 129 139 143 142 142 138 150 152 148 148 154 158 153 150 150 151 150 150 154 154 157 161 162 163 163 163 163 162 160 154 152 152 154 158 166 173 170 165 161 155 155 148 133 127 128 124 116 115 119 120 116 106 100 101 101 100 97 101 115 115 110 109 109 108 107 108 113 116 116 115 114 115 116 117 118 118 110 104 100 94 87 80 76 73 70 69
254 337 7 17 12 45 90 131 129 134 133 134 143 139 142 142 136 152 149 107 128 138 147 149 146 147 149 149 151 155 156 159 162 164 166 166 167 166 161 158 156 156 157 160 161 167 175 175 172 165 160 155 149 139 130 127 127 126 123 124 125 120 114 112 112 107 102 106 118 129 123 116 110 102 99 100 102 107 110 111 112 112 112 111 112 112 108 101 96 92 85 77 71 69 67 65 63
248 351 60 78 81 77 105 133 133 132 127 127 135 135 144 143 138 148 111 105 128 131 137 143 145 148 148 150 154 157 156 158 161 164 165 166 168 164 159 157 158 160 162 164 165 171 176 180 179 170 167 162 153 145 133 129 130 132 132 132 132 128 125 118 111 107 110 122 136 136 117 111 106 98 94 94 97 100 102 105 106 105 103 101 103 103 98 92 89 84 76 68 64 62 62 61 57
226 286 93 127 107 85 101 128 132 118 113 122 127 127 128 128 132 131 115 128 133 132 137 142 147 151 152 152 154 155 155 157 159 162 164 164 162 159 160 160 161 164 167 168 169 174 178 181 182 175 172 167 155 147 139 136 134 137 141 139 137 132 123 115 112 114 124 133 137 128 112 105 98 93 93 93 95 97 99 102 99 96 96 94 94 94 91 84 79 73 66 61 56 55 55 50 46
193 168 122 134 113 99 101 116 124 113 118 133 122 111 102 112 122 112 121 137 135 135 139 145 150 155 157 153 153 156 156 158 161 164 165 163 162 163 165 167 170 173 172 171 171 175 181 182 182 179 174 168 161 152 145 143 140 142 144 140 138 132 126 124 123 128 134 135 130 119 113 110 100 94 93 92 92 93 94 95 92 92 92 92 90 88 84 78 71 62 55 52 49 49 43 36 35
131 130 112 116 115 118 116 113 122 116 119 135 125 115 109 117 131 125 138 142 139 139 141 148 154 157 159 154 154 159 158 160 163 163 164 164 170 172 171 176 179 179 177 174 174 178 182 182 182 181 176 170 166 157 149 149 147 148 147 143 144 143 140 139 137 139 139 134 128 118 114 116 111 105 100 94 91 89 90 91 91 92 93 94 92 88 81 73 66 56 49 47 45 41 31 29 33
127 118 104 107 111 117 120 120 132 127 106 116 118 110 113 128 130 139 146 149 145 142 145 153 157 158 160 157 156 162 162 162 164 167 170 173 177 179 178 181 181 180 182 179 176 177 179 180 181 182 179 176 171 161 157 156 154 154 152 149 150 152 151 148 145 145 139 134 131 122 119 122 122 120 110 99 93 93 95 95 94 95 97 99 97 92 85 75 66 54 46 42 38 33 26 27 31
138 122 108 115 116 118 119 123 140 137 119 108 108 112 138 146 123 140 147 152 150 144 149 155 157 159 161 160 158 166 170 167 171 176 178 179 181 184 184 183 181 180 182 179 175 174 174 176 179 183 185 183 176 167 163 162 160 157 155 152 152 155 155 150 148 147 142 136 132 126 122 125 130 131 119 102 97 100 103 103 100 100 102 104 103 99 90 79 68 56 45 36 29 29 26 25 28
151 132 127 133 138 136 118 144 149 130 119 110 118 154 165 145 126 146 152 151 151 149 154 157 157 161 163 163 162 170 177 174 179 183 182 182 184 188 188 185 182 179 177 176 175 173 171 173 180 186 189 186 179 174 167 164 166 161 155 155 155 156 156 153 151 150 147 140 134 129 125 127 133 136 129 108 98 101 103 106 106 104 105 106 106 102 92 80 69 59 48 36 28 29 28 25 26
156 140 151 160 165 145 120 163 157 137 124 95 172 180 163 150 138 150 158 154 154 154 159 161 159 162 164 167 167 172 181 184 186 186 185 185 185 190 191 186 184 181 177 174 175 174 171 173 179 185 190 189 182 177 170 167 171 167 160 158 158 155 154 154 153 151 151 146 136 130 128 130 133 135 132 116 106 102 100 108 111 109 107 105 105 100 89 76 67 59 52 43 32 32 31 26 24
170 161 171 189 179 145 127 151 179 148 139 115 278 161 145 154 151 154 161 159 158 157 161 165 162 163 166 168 171 174 183 188 189 188 188 187 188 192 192 187 185 184 181 175 172 172 173 176 180 184 188 189 185 180 175 171 173 171 166 162 159 156 155 156 156 154 154 152 141 134 134 135 134 132 129 125 119 112 111 117 122 120 112 107 106 96 84 71 64 57 53 51 43 37 32 27 27
183 220 182 174 171 158 143 151 197 152 140 146 292 152 129 152 158 155 163 165 162 159 162 168 165 164 168 169 173 177 182 187 190 190 188 188 192 194 193 190 187 187 184 176 171 172 175 178 180 182 184 187 187 183 179 173 172 170 166 167 165 159 155 155 160 159 157 157 148 139 140 139 133 123 118 124 123 122 125 125 128 127 115 111 106 90 76 65 61 55 50 52 47 37 28 29 32
182 210 174 171 164 164 152 153 174 163 157 170 181 116 107 150 159 155 167 171 165 163 164 169 168 165 169 172 174 178 182 187 190 191 189 188 192 195 195 192 189 188 186 181 176 174 175 177 181 184 185 186 187 185 180 173 171 170 167 169 170 164 159 158 162 159 157 158 152 145 142 138 129 111 104 115 120 125 130 130 131 126 113 113 102 79 62 56 58 52 44 44 41 36 30 29 29
169 166 180 166 168 186 180 158 169 167 170 174 160 128 108 149 157 156 171 175 170 168 166 167 169 167 170 176 178 179 184 190 191 190 188 188 190 193 195 193 189 189 187 185 181 176 175 174 180 189 188 185 185 185 180 173 173 172 169 171 173 170 166 166 165 161 159 158 154 148 141 136 126 108 103 111 118 124 130 134 131 124 118 114 93 63 49 48 51 46 40 40 37 38 40 34 28
172 162 202 180 173 198 189 172 172 173 173 169 167 157 137 158 164 159 168 178 179 172 166 167 168 168 174 180 182 180 186 195 193 189 186 186 189 191 192 190 188 188 187 185 183 181 178 174 180 190 189 184 182 183 181 178 176 176 176 178 179 177 174 173 169 165 164 162 156 151 145 139 126 112 109 114 120 126 133 136 130 125 122 115 92 58 43 40 43 39 37 37 31 34 41 34 25
183 158 166 190 184 181 182 181 171 175 176 166 174 163 150 170 173 162 159 174 184 180 171 172 171 173 179 185 186 180 188 196 188 185 185 183 186 189 189 188 186 184 185 188 188 186 181 177 181 188 188 184 182 182 184 184 182 181 183 186 187 184 181 177 172 170 168 164 158 154 154 147 133 119 114 115 120 126 133 132 128 123 121 115 95 64 44 35 36 34 32 32 28 33 39 29 24
186 162 153 191 200 161 172 178 164 176 195 169 174 172 163 177 177 165 158 174 187 186 179 177 177 179 181 187 189 183 188 194 183 182 184 183 184 185 186 187 186 186 186 189 190 189 186 181 181 185 188 187 186 186 186 187 187 186 187 191 189 187 188 183 178 177 169 165 163 161 164 162 149 129 114 109 112 121 129 131 128 118 115 112 88 59 42 33 33 32 30 27 25 35 39 27 27
174 172 163 189 182 130 117 158 153 166 225 174 180 195 180 177 178 171 170 178 184 187 186 183 180 180 183 189 190 188 188 190 187 183 182 185 183 182 186 188 190 190 187 189 191 190 188 185 184 185 188 191 191 190 188 190 192 191 193 195 191 189 193 189 185 183 174 169 170 169 175 174 161 138 121 114 114 117 120 125 126 117 111 107 78 52 40 32 33 35 32 25 18 31 42 30 30
172 173 166 176 175 159 143 162 151 144 274 186 181 197 187 173 178 180 184 179 157 162 183 183 185 185 187 190 192 193 192 190 193 189 184 184 181 181 187 189 189 188 185 188 190 190 191 191 191 189 190 193 194 193 189 193 200 199 200 203 199 198 200 195 191 191 186 183 183 182 185 183 174 160 147 132 122 121 120 117 121 130 132 113 78 52 38 31 36 39 34 26 16 22 37 32 31
175 196 196 159 175 183 140 151 154 150 189 187 173 181 221 194 196 195 191 186 172 159 170 176 186 189 187 191 195 198 198 193 193 192 186 183 182 185 188 187 187 188 189 191 191 193 195 197 200 201 200 198 198 197 189 192 200 198 196 198 197 197 200 199 195 196 197 196 198 195 194 191 186 183 178 156 132 119 120 119 110 117 131 127 89 42 30 32 44 42 35 29 18 19 24 23 28
196 209 208 170 178 161 133 150 153 162 195 200 190 209 220 193 208 204 189 192 194 183 182 185 184 186 187 192 198 200 199 195 194 192 186 185 187 186 183 184 190 194 195 193 193 197 198 201 206 208 207 206 207 203 193 194 201 198 193 188 186 186 188 196 199 197 196 197 197 196 199 198 194 194 195 184 165 140 122 129 105 93 79 73 29 356 18 31 47 44 37 30 21 24 23 19 26
224 194 177 177 179 151 149 163 163 177 195 185 197 231 227 184 210 208 190 195 200 192 194 196 185 184 188 192 197 198 197 195 196 194 188 188 188 185 183 186 194 199 197 191 190 196 201 205 208 208 208 208 209 205 198 202 206 205 201 195 191 189 187 195 198 195 192 194 193 195 201 202 200 201 202 200 200 208 237 267 265 8 25 350 292 285 329 16 36 35 36 35 30 35 29 22 23
236 149 162 166 169 158 162 174 182 182 123 145 187 228 275 222 206 200 194 197 203 202 203 201 195 191 189 191 195 197 198 195 195 193 189 190 188 187 189 190 196 199 193 187 187 194 204 209 209 208 207 206 207 207 204 206 208 208 206 202 201 199 194 194 195 194 196 198 198 197 199 205 206 207 208 211 215 227 246 259 265 272 282 290 283 277 282 299 338 353 27 44 44 46 36 25 21
317 137 157 151 158 175 175 182 195 180 154 173 193 204 242 237 161 185 193 198 207 208 208 204 198 196 191 190 194 197 200 197 195 194 190 191 190 192 194 193 195 195 190 189 187 193 204 210 209 208 207 205 206 208 207 208 209 211 209 206 207 206 203 200 197 200 204 206 207 202 197 203 209 212 216 220 223 232 245 255 267 267 263 276 276 268 270 275 284 280 255 35 56 68 46 30 26
77 138 152 134 137 163 182 198 202 185 211 223 196 194 227 224 145 178 191 203 213 210 210 208 200 197 194 190 194 195 195 196 198 197 193 193 193 196 197 194 192 190 189 189 184 189 200 207 210 209 207 205 204 207 209 208 209 213 214 213 212 211 211 211 208 210 213 212 211 206 200 201 207 214 219 226 229 234 241 248 257 257 257 269 267 256 258 265 263 237 226 285 107 115 68 38 27
116 138 137 112 115 105 133 226 220 202 228 238 189 189 219 258 163 178 186 201 211 206 209 208 199 197 196 193 195 193 191 190 194 198 196 195 195 195 194 192 190 185 183 183 181 186 194 202 208 209 209 206 204 206 208 209 210 212 216 217 216 215 216 217 216 217 218 215 212 210 207 202 202 209 217 227 232 233 238 242 245 248 255 264 259 250 254 256 247 227 224 234 173 147 98 45 16
140 154 142 111 107 116 135 322 347 223 225 339 176 181 202 246 194 174 191 182 188 199 204 199 193 194 194 193 193 190 188 187 190 194 193 190 186 186 190 190 186 180 177 180 183 185 189 199 206 207 209 209 205 206 208 210 211 212 215 218 219 220 220 220 220 221 222 219 215 214 213 208 206 207 211 220 227 230 233 235 237 241 248 255 250 248 252 242 226 221 225 234 215 177 144 39 1
175 169 158 146 135 149 190 206 205 221 221 22 177 175 195 252 257 164 204 202 180 197 202 191 185 188 188 187 186 183 184 187 189 188 186 183 178 183 187 183 181 183 184 184 185 185 188 198 204 205 209 210 208 207 208 210 212 213 214 216 219 222 223 224 225 226 225 222 221 220 218 216 214 213 212 216 220 223 228 231 232 232 235 243 243 246 249 232 216 220 228 237 235 204 206 304 315
195 178 175 172 159 171 195 190 202 222 200 49 158 174 207 260 242 99 216 218 201 211 216 189 179 184 186 181 175 174 179 183 184 184 184 182 181 185 186 182 185 190 190 187 184 185 188 194 202 205 209 211 210 209 210 211 212 214 215 216 219 221 223 227 228 226 225 225 225 223 223 222 219 218 217 219 219 219 224 228 226 224 227 235 237 238 240 227 217 225 236 241 243 234 240 270 289
196 194 205 198 177 189 196 185 198 202 146 108 145 176 225 228 132 5 299 276 237 226 236 193 182 186 182 170 165 169 179 182 181 185 188 186 185 186 185 185 189 191 190 189 186 187 190 194 201 204 207 211 211 210 212 213 213 215 215 215 218 220 224 228 229 229 229 230 230 228 229 229 224 223 224 227 229 223 222 222 219 220 226 231 233 229 229 227 224 231 239 242 247 254 260 274 285
188 190 214 222 200 186 169 193 200 138 117 148 168 199 262 230 288 320 286 285 224 204 210 198 188 182 171 165 170 175 181 180 181 187 189 188 186 187 188 188 189 188 189 189 187 192 195 198 203 205 208 212 212 211 213 214 215 215 215 215 217 220 224 228 232 235 235 234 234 235 237 237 231 229 233 239 241 228 220 216 215 222 228 230 233 227 223 225 228 234 242 245 250 260 268 275 281
146 184 199 199 200 145 123 175 126 101 199 176 184 221 237 212 235 190 156 166 158 184 193 191 183 176 172 175 178 179 179 176 178 183 185 185 184 187 191 190 187 187 189 192 196 199 201 201 204 205 206 210 212 213 213 214 216 216 216 215 216 220 224 227 230 235 236 236 237 236 236 237 235 234 238 243 244 229 217 214 217 226 230 229 231 229 223 221 226 234 241 246 249 259 270 274 276
148 190 176 120 55 88 116 189 165 207 223 180 193 229 223 204 210 149 155 160 142 167 182 178 174 174 178 181 175 169 166 164 169 175 178 181 182 187 192 190 190 191 193 198 201 201 201 202 204 204 205 208 212 213 213 214 216 217 217 217 217 220 224 226 228 231 234 235 236 233 230 234 238 239 242 244 241 228 217 218 224 231 234 232 231 231 227 222 224 233 243 248 250 255 265 272 275
202 174 160 149 195 184 168 208 192 201 217 190 192 239 241 219 204 170 177 172 158 164 173 174 174 177 181 177 162 150 145 149 161 170 175 179 182 187 191 191 193 195 196 199 199 196 197 200 203 204 206 209 212 211 212 216 217 216 219 220 220 221 223 226 229 232 233 233 231 230 233 239 243 244 247 243 234 226 223 225 231 236 238 238 237 235 232 226 226 235 245 248 249 255 262 269 275
18 147 171 195 239 183 178 204 205 204 209 198 189 222 234 214 191 175 178 170 167 170 174 179 178 178 177 163 151 145 145 150 156 162 169 176 181 186 189 190 193 195 196 196 195 194 196 199 201 203 202 203 207 208 211 216 216 216 220 223 223 223 223 225 231 232 230 228 227 229 235 240 243 244 244 237 230 227 230 232 233 235 235 238 242 241 238 234 233 239 246 247 250 255 261 266 271
176 177 181 188 167 168 179 163 279 227 207 192 199 215 214 146 59 200 173 166 175 174 170 176 177 176 169 154 154 154 148 145 144 148 158 167 175 183 188 190 192 192 191 193 195 195 197 198 200 201 198 199 205 208 212 216 216 218 222 225 225 224 223 224 227 229 227 226 229 232 234 235 239 240 236 233 230 230 236 238 235 236 237 240 246 247 244 242 241 244 250 255 258 263 266 267 270
189 186 188 189 168 156 187 194 158 256 222 184 214 225 175 76 35 207 171 168 177 171 163 164 169 172 170 162 165 167 158 147 138 141 150 153 164 176 182 184 185 183 186 192 194 193 194 196 201 203 201 202 204 206 212 216 217 220 223 225 224 223 224 224 224 225 224 226 233 237 238 235 233 235 233 233 230 230 238 241 239 243 246 245 248 249 247 246 248 251 256 257 259 265 270 270 274